PICO-02H028

operational
NORAD ID: 60570 Int'l Des: 2024-149 Owner: APOGEO Country: I
LEOCIRCULARRETROGRADESSO

About PICO-02H028

Description loading...

Live Position

Loading 3D Globe...

Upcoming Passes

Altitude History

Altitude vs Time

uPlot chart will show altitude changes over time

Two-Line Element Set

1 60570U 24149DG 26012.68647431 .00349110 00000-0 34359-2 0 9992
2 60570 97.6805 107.7469 0006616 294.6102 65.4467 15.64862687 77854
Epoch: Jan 12, 2026 • Age: 13 hours

Current Status

Altitude 389.3 km
Velocity 7.68 km/s
Sub-Earth Point 70.55°N, 119.77°E
Launch Date Aug 16, 2024
Age 1.4 years
Type other

Technical Details

Classification Payload
Mass 0.50 kg
Dry Mass 0.50 kg
Total Mass 0.50 kg
Length 0.03 m
Diameter 0.10 m
Span 0.10 m
Shape Box
Manufacturer APOGEO
Bus Type Cubesat 0.3U
Phase Status In Orbit
Owner/State APOGEO/I

Large Constellations

Loading constellations...